Погода в Выдропужске

Россия / Тверская область     57°21′55″N   34°50′39″E
темп.,
°C
ветер,
м/с
пор.,
м/с
влажн.,
%
обл.,
%
осадки,
мм/ч
давл.,
гПа
погр.,
м
15 мая, сб
сб1500:00+11вюв249638 0.0 101187
03:00+10в2797100 0.0 1009160
06:00+12вюв279987 0.9 1007277
09:00+14юв2697100 2.3 1007425
12:00+17ю368475 1.7 1007665
15:00+21ююз36525 2.1 10051793
18:00+18ююз597563 1.0 1005441
21:00+14ююз3109182 1.8 1005279
16 мая, вс
вс1600:00+11ю311974 0.0 1006295
03:00+11ююз310976 0.0 1006253
06:00+11ююз310967 0.0 1007321
09:00+16юз487876 0.0 1008745
12:00+19зюз466790 0.7 10091442
15:00+19зюз357013 2.9 10101163
18:00+20юз23646 0.1 1010853
21:00+14ююз22899 0.5 101229
17 мая, пн
пн1700:00+12юз22946 0.0 101320
03:00+11ю119410 0.0 101412
06:00+12ююв1393100 0.0 101486
09:00+17ююв347599 0.0 1014491
12:00+21юв4555100 0.0 10131420
15:00+23юв464848 0.0 10121585
18:00+23вюв495988 0.0 10101475
21:00+17в41485100 0.7 1008447
18 мая, вт
вт1800:00+16вюв41495100 0.3 1008446
03:00+16вюв41495100 0.3 1006457
06:00+16юв41392100 0.0 1005417
09:00+20юв51373100 0.0 1004702
12:00+24ююв61158100 0.0 10031428
15:00+23ююв5117161 1.3 10031631
18:00+20ююв5128396 2.3 10031109
21:00+16ююв41291100 3.8 1004818
19 мая, ср
ср1900:00+13ю269898 0.7 1005158
03:00+12ююв2298100 0.7 100443
06:00+13юв2497100 0.0 1004141
09:00+16вюв3691100 0.0 1002462
12:00+18ю5882100 2.0 10011071
15:00+16ююз5779100 4.8 10021006
18:00+13зюз61178100 0.3 1003997
21:00+11зюз41178100 0.3 1005766